200 serials | global mapper registration key serial numbers. convert global mapper registration key trail version to full software

Date Name Success Rate
2011-09-08 11:02:47 Global Mapper Version: 7.04 0%
2009-10-17 06:23:44 Global Mapper V10.0 80%
2009-10-17 06:23:44 Global Mapper V6.02 53%
2009-10-17 06:23:44 Global Mapper V6.03 18%
2009-10-17 06:23:44 Global Mapper V6.06 13%
2009-10-17 06:23:44 Global Mapper V6.07 69%
2009-10-17 06:23:44 Global Mapper V6.08 72%
2009-10-17 06:23:44 Global Mapper V6.09 22%
2009-10-17 06:23:44 Global Mapper V7.00 25%
2009-10-17 06:23:44 Global Mapper V7.01 21%
2009-10-17 06:23:44 Global Mapper V7.02 24%
2009-10-17 06:23:44 Global Mapper V7.03 16%
2009-10-17 06:23:44 Global Mapper V7.04 21%
2009-10-17 06:23:44 Global Mapper V8.01-ONE 11%
2009-10-17 06:23:44 Global Mapper V8.03-ONE 20%
2009-10-22 23:48:00 Global Mapper 4.78 0%
2009-10-22 23:48:00 Global Mapper 5.06 0%
2009-10-22 23:48:00 Global Mapper 5.10 0%
2009-10-22 23:48:00 Global Mapper 6.02 0%
2009-10-22 23:48:00 Global Mapper 6.03 0%
2009-10-22 23:48:00 Global Mapper 6.06 0%
2009-10-22 23:48:00 Global Mapper 6.07 0%
2009-10-22 23:48:00 Global Mapper 6.08 0%
2009-10-22 23:48:00 Global Mapper 6.09 0%
2009-10-22 23:48:00 Global Mapper 7.00 0%
2009-10-22 23:48:00 Global Mapper 7.01 0%
2009-10-22 23:48:00 Global Mapper 7.02 0%
2009-10-22 23:48:00 Global Mapper 7.03 0%
2009-10-22 23:48:00 Global Mapper V10.0 22%
2009-10-22 23:48:00 Global Mapper V7.04 0%
2009-10-22 23:48:00 Global Mapper V8.03 0%
2011-09-08 11:02:47 Global Mapper 4.78 0%
2011-09-08 11:02:47 Global Mapper 5.05 0%
2011-09-08 11:02:47 Global Mapper 5.06 0%
2011-09-08 11:02:47 Global Mapper 5.10 0%
2011-09-08 11:02:47 Global Mapper 6.02 0%
2011-09-08 11:02:47 Global Mapper 6.03 0%
2011-09-08 11:02:47 Global Mapper 6.06 0%
2011-09-08 11:02:47 Global Mapper 6.07 0%
2011-09-08 11:02:47 Global Mapper 6.09 0%
2011-09-08 11:02:47 Global Mapper 7.00 0%
2011-09-08 11:02:47 Global Mapper 7.02 44%
2011-09-08 11:02:47 Global Mapper v4.78 0%
2011-09-08 11:02:47 Global Mapper v5.00 0%
2011-09-08 11:02:47 Global Mapper v5.01 0%
2011-09-08 11:02:47 Global Mapper v5.02 0%
2011-09-08 11:02:47 Global Mapper v5.03 0%
2011-09-08 11:02:47 Global Mapper v5.04 0%
2011-09-08 11:02:47 Global Mapper v5.06 0%
2011-09-08 11:02:47 Global Mapper v5.08 0%
2011-09-08 11:02:47 Global Mapper v5.09 0%
2011-09-08 11:02:47 Global Mapper v5.10 0%
2011-09-08 11:02:47 Global Mapper v6.0 0%
2011-09-08 11:02:47 Global Mapper v6.02 0%
2011-09-08 11:02:47 Global Mapper v6.03 0%
2011-09-08 11:02:47 Global Mapper v6.05 0%
2011-09-08 11:02:47 Global Mapper v6.06 0%
2011-09-08 11:02:47 Global Mapper v6.07 0%
2011-09-08 11:02:47 Global Mapper v6.08 0%
2011-09-08 11:02:47 Global Mapper v6.09 0%
2012-12-12 13:23:37 Global Mapper v11.01 49%
2012-12-12 13:23:39 Global Mapper v11.02 45%
2012-12-12 13:23:41 Global Mapper v13 77%
2012-12-12 13:23:43 Global Mapper v13.22 25%
2009-10-17 06:23:44 Global Mapper V7.03.190206 20%
2009-10-22 23:48:00 Global Mapper V7.03.190206 0%
2011-09-08 11:02:47 Global Mapper 11.01.DC011110 80%
2011-09-08 11:02:47 Global Mapper v1.06 by REVENGE 0%
2011-09-08 11:02:47 Global Mapper v4.78 by iNFECTED 0%
2011-09-08 11:02:47 Global Mapper v5.10 by iNFECTED 0%
2011-09-08 11:32:07 Microstation v5.xx.xx & 95 FULL REGISTRATION 73%
2009-10-22 23:48:00 Global War (for Any Version) 0%
2011-09-08 11:02:49 Global war (for any version) 0%
2011-09-08 11:02:49 Global war any version 0%
2011-09-08 11:02:49 Global war any version 02 0%
2011-09-08 11:02:49 Global war any version 03 0%
2011-09-08 11:02:49 Global war any version 06 0%
2011-09-08 11:02:49 Global war any version 09 0%
2011-09-08 11:02:49 Global war any version bbs: ?-? 0%
2009-10-17 06:32:24 Sobolsoft MS Word Convert Numbers To Text Software V7.0 74%
2009-10-22 23:48:00 Global Operations Global Ops 0%
2009-10-17 06:23:44 Global Graphics Software Jaws PDF Creator V4.0-EDGE 47%
2009-10-22 23:48:00 Global Graphics Software Jaws PDF Creator V4.0-EDGE 0%
2011-09-08 10:42:09 DAS Registration 1.5.2 64%
2011-09-08 10:42:09 DAS Registration For CW5 45%
2011-09-08 10:42:09 DAS Registration v1.5.2 0%
2009-10-17 06:27:02 Lazarus Registration DLL V1.0 55%
2009-10-22 23:48:48 MemoriesonTV Registration 0%
2009-10-22 23:49:42 Registration Wizard 73%
2011-09-08 10:06:47 AnetHelpTool v4.02 Registration 52%
2011-09-08 10:22:13 ByeLines Registration 78%
2011-09-08 10:57:42 Ftgate Registration 72%
2011-09-08 11:15:16 Infodex v2.10 Registration 45%
2011-09-08 11:25:08 Lazarus Registration DLL v1.0 47%
2011-09-08 11:27:46 Mac Opener v3.0 Registration 57%
2011-09-08 11:32:59 mIRC v4.5+ Registration 35%
2011-09-08 11:32:59 mIRC v4.52 Registration 51%
2011-09-08 12:37:02 Quant v2.0 Registration 52%
2011-09-08 12:41:14 Registration Suite 1.0 56%
2011-09-08 12:41:14 Registration Suite v1.0 60%
2011-09-08 12:41:14 Registration Wizard Pro 5.01 46%
2011-09-08 12:41:14 Registration Wizard Pro v5.01 60%
2011-09-08 13:18:59 WinHacker 95 v2.02 Registration 57%
2012-12-13 05:12:00 Registration Key : 526EFEF086E09600449E667EA2DAE8E2E6D642BC 65%
2009-10-22 23:27:21 Ardamax Keylogger 2.9 Registration 56%
2009-10-22 23:48:49 Microsoft Registration Hacker - 39%
2009-10-22 23:49:57 SoudForge ALL (No Registration Requiered) 0%
2009-10-22 23:50:26 Valve's Registration Armor Key-Gen 60%
2011-09-08 10:21:42 Browserola v1.01 Temp. Registration 0%
2011-09-08 10:56:11 FontLook v3.1 Registration Code 72%
2011-09-08 11:31:51 Microsoft Registration Hacker 0%
2011-09-08 11:31:51 Microsoft Registration Hacker - 0%
2011-09-08 11:31:51 Microsoft Registration HackerMSREGHACK 0%
2011-09-08 11:42:43 Nic O'Matic 1.6 Registration Code 67%
2011-09-08 11:42:43 Nic O'Matic v1.6 Registration Code 48%
2011-09-08 12:34:57 PolyTrans V1.2E Registration Activator CD-Key 73%
2011-09-08 12:34:57 PolyView v2.9b16 Registration 0%
2011-09-08 12:54:09 Time Registration (German) 1.10 0%
2011-09-08 12:59:30 Super Collapse Registration 83%
2011-09-08 13:23:15 Yipe! II for Windows Registration #154 0%
2012-12-13 08:49:53 Softwarenetz Time Registration v1.10 28%
2012-12-13 08:49:56 Softwarenetz Time Registration v1.14 0%
2012-12-13 15:34:10 Valve's Registration Armor Key-Gen 0%
2009-10-22 23:48:17 Internet Download Manager Registration 55%
2011-09-08 10:25:56 Cheyenne Bitware V4.0 Registration Number 53%
2011-09-08 11:31:51 Microsoft Registration Hacker MSREGHACK 69%
2011-09-08 11:31:51 Microsoft Visual Basic 5 registration cd key 72%
2011-09-08 12:54:14 TimeSlips 10.5 enterprise - with registration code! 54%
2012-12-12 08:07:32 Download avast 5.0.667 Antivirus registration 52%
2012-12-13 05:12:00 Registration Code For PDFZilla Giveaway 42%
2012-12-13 05:12:00 Registration key for x-3gp-video-converter-38540 81%
2012-12-13 13:12:40 Total Image Converter Registration Key 49%
2011-09-08 11:30:16 MediaBlaze 98 v1.01 Win95/NT User: delphic Registration 0%
2012-12-13 05:12:00 Registration code:-826510-16101-266644 59%
2009-10-22 23:49:02 Norton Internet Security 2005 Registration Guide 0%
2011-09-08 09:58:40 Acoustica Mixcraft v1.10 Build 15 Registration Info by MaBi 60%
2011-09-08 11:29:21 Mapper 1.0 0%
2011-09-08 11:29:21 Mapper v1.0 16%
2012-12-12 19:40:26 Microsoft Visual Basic 2008 Express Edition Registration key 50%
2009-10-17 06:20:50 CyD Image Mapper V1.0 54%
2009-10-22 23:45:57 CyD Image Mapper 1.0 0%
2011-09-08 10:33:25 CyD Image Mapper 1.0 0%
2011-09-08 11:14:21 Image Mapper 1.03 0%
2011-09-08 11:14:21 Image Mapper v1.03 0%
2011-09-08 12:50:34 Space Mapper 1.77 0%
2011-09-08 12:50:34 Space Mapper v1.77 0%
2012-12-12 13:25:22 Gobal mapper 0%
2009-10-17 06:18:44 Antilop Disk Mapper V2.0 18%
2009-10-22 23:27:20 Antilop Disk Mapper 2.0 0%
2011-09-08 10:07:13 Antilop Disk Mapper 2.0 0%
2011-09-08 11:16:08 Intergraph MGE Base Mapper 7.00.02.00 0%
2011-09-08 11:16:08 Intergraph MGE Base Mapper v7.00.02.00 0%
2011-09-08 12:46:46 Selteco Image Mapper v1.0 0%
2011-09-08 12:51:12 Spider2001 Image Mapper 1.10 0%
2011-09-08 12:51:12 Spider2001 Image Mapper v1.10 0%
2009-10-22 23:48:50 Mind Mapper Professional 4.0.4006 0%
2011-09-08 11:32:35 Mind Mapper Professional 3.5.3816 0%
2011-09-08 11:32:35 Mind Mapper Professional 4.0.4006 48%
2011-09-08 11:32:35 Mind Mapper Professional v3.2.0165 0%
2012-12-12 15:34:40 Informatik Mapdraw Deed Mapper v 7.6 16%
2011-09-08 11:32:35 Mind Mapper Professional v3.5.3816 by REVENGE 0%
2009-10-22 23:27:17 ALL THE SIMS Serial Numbers 75%
2012-12-12 21:48:23 NERO 9 ( TURN TRAIL TO FULL ) 25%
2011-09-08 11:02:47 Global 56%
2011-09-08 11:02:47 Global IRC-d 0.5.3 0%
2011-09-08 11:02:47 Global IRC-d 0.6a3 0%
2011-09-08 11:02:47 Global IRC-d v0.5.3 0%
2011-09-08 11:02:47 Global IRC-d v0.6a3 0%
2011-09-08 11:02:49 Global War 0%
2011-09-08 11:02:49 Global War v?.?? 0%
2011-09-08 11:02:49 Global War x.xx 0%
2009-10-22 23:48:00 Global Operations 59%
2009-10-22 23:48:00 Global Operations 0%
2009-10-22 23:48:00 Global Operations 0%
2009-10-22 23:48:00 Global Operations 0%
2009-10-22 23:48:00 Global Operations 0%
2009-10-22 23:48:00 Global Operations 0%
2009-10-22 23:48:00 Global Operations 0%
2011-09-08 11:02:47 Global Diary 3.6 0%
2011-09-08 11:02:47 Global Diary 3.61 0%
2011-09-08 11:02:47 Global Diary 3.7 0%
2011-09-08 11:02:47 Global Diary v3.6 0%
2011-09-08 11:02:47 Global Diary v3.61 0%
2011-09-08 11:02:47 Global Diary v3.7 0%
2011-09-08 11:02:47 Global IRC-d 0.6dp1 0%
2011-09-08 11:02:47 Global IRC-d v0.6dp1 0%
2011-09-08 11:02:47 Global Mines 1.1 0%
2011-09-08 11:02:47 Global Mines v1.1 0%
2011-09-08 11:02:47 Global Operation 0%
2011-09-08 11:02:47 Global Operations 0%
2011-09-08 11:02:47 Global Operations 1.0 0%
2011-09-08 11:02:47 Global PromoBot 1.71 0%
2011-09-08 11:02:47 Global PromoBot v1.71 0%
2011-09-08 11:02:47 Global Substituter 2.0 0%
2011-09-08 11:02:47 Global Substituter v2.0 0%
2011-09-08 11:02:47 Global TimeKeeper 1.6 0%
2011-09-08 11:02:47 Global TimeKeeper v1.6 0%
2009-10-23 07:01:08 "MAD - ""Global Thermonuclear Warfare""" 54%
2009-10-22 23:27:13 Actysoft Global Downloader V1.4.4.5 67%
2009-10-22 23:45:54 Conflict Global Storm 0%